Weather History for KUIN - August, 2013

Change the Weather History Date:

Tuesday, August 13, 2013

  Actual Average Record
Temperature  
Mean Temperature 68 °F 75 °F  
Max Temperature 79 °F 85 °F 105 °F (1936)
Min Temperature 57 °F 65 °F 44 °F (1964)
Degree Days  
Heating Degree Days 0 0  
Month to date heating degree days 0 0  
Since 1 June heating degree days 16 16  
Since 1 July heating degree days 4 0  
Cooling Degree Days 3 10  
Month to date cooling degree days 106 135  
Year to date cooling degree days 787 791  
Since 1 June cooling degree days 675 705  
Growing Degree Days 19 (Base 50)    
Moisture  
Dew Point 57 °F    
Average Humidity 68    
Maximum Humidity 93    
Minimum Humidity 42    
Precipitation  
Precipitation 0.00 in 0.11 in 3.39 in (1987)
Month to date precipitation 0.01 1.54  
Year to date precipitation 28.10 23.66  
Sea Level Pressure  
Sea Level Pressure 30.06 in    
Wind  
Wind Speed 6 mph (NNE)    
Max Wind Speed 16 mph    
Max Gust Speed 18 mph    
Visibility 10 miles    
Events      
T = Trace of Precipitation, MM = Missing Value Source: NWS Daily Summary

Daily Weather History Graph

Daily Weather History Graph

Search for Another Location

Airport or City:

Trip Planner

Search our weather history database for the weather conditions in past years. The results will help you decide how hot, cold, wet, or windy it might be!

Date:

Astronomy

Aug. 13, 2013 Rise Set
Actual Time 6:14 AM CDT 8:03 PM CDT
Civil Twilight 5:45 AM CDT 8:32 PM CDT
Nautical Twilight 5:10 AM CDT 9:07 PM CDT
Astronomical Twilight 4:32 AM CDT 9:45 PM CDT
Moon 1:09 PM CDT (8/13) 11:39 PM CDT (8/13)
Length of Visible Light 14h 46m
Length of Day
13h 48m
Waxing Crescent, 42% of the Moon is Illuminated
Aug 13
Waxing Crescent
Aug 14
First Quarter
Aug 20
Full
Aug 28
Last Quarter
Sep 5
New

Hourly Weather History & Observations

Time (CDT) Temp. Dew Point Humidity Pressure Visibility Wind Dir Wind Speed Gust Speed Precip Events Conditions
12:54 AM 64.9 °F 62.1 °F 90% 29.98 in 10.0 mi NW 5.8 mph - N/A   Clear
1:54 AM 63.0 °F 60.1 °F 90% 29.98 in 10.0 mi NW 5.8 mph - N/A   Clear
2:54 AM 62.1 °F 57.0 °F 84% 29.97 in 10.0 mi NNW 5.8 mph - N/A   Clear
3:54 AM 61.0 °F 57.0 °F 87% 29.99 in 10.0 mi Calm Calm - N/A   Clear
4:54 AM 60.1 °F 55.9 °F 86% 29.99 in 10.0 mi NNW 4.6 mph - N/A   Clear
5:54 AM 59.0 °F 55.9 °F 90% 30.01 in 10.0 mi NNW 3.5 mph - N/A   Clear
6:54 AM 59.0 °F 55.9 °F 90% 30.02 in 10.0 mi NNW 3.5 mph - N/A   Clear
7:54 AM 64.0 °F 57.9 °F 80% 30.03 in 10.0 mi North 5.8 mph - N/A   Clear
8:54 AM 66.0 °F 59.0 °F 78% 30.05 in 10.0 mi North 9.2 mph - N/A   Clear
9:54 AM 68.0 °F 59.0 °F 73% 30.07 in 10.0 mi NNE 5.8 mph - N/A   Clear
10:54 AM 72.0 °F 60.1 °F 66% 30.08 in 10.0 mi North 4.6 mph - N/A   Clear
11:54 AM 75.0 °F 61.0 °F 62% 30.09 in 10.0 mi North 6.9 mph - N/A   Clear
12:54 PM 78.1 °F 59.0 °F 52% 30.09 in 10.0 mi NE 8.1 mph - N/A   Clear
1:54 PM 79.0 °F 57.9 °F 48% 30.09 in 10.0 mi NE 9.2 mph - N/A   Clear
2:54 PM 78.1 °F 57.9 °F 50% 30.08 in 10.0 mi NE 9.2 mph 17.3 mph N/A   Clear
3:54 PM 77.0 °F 57.0 °F 50% 30.07 in 10.0 mi ENE 9.2 mph - N/A   Mostly Cloudy
4:54 PM 79.0 °F 53.1 °F 40% 30.06 in 10.0 mi NNE 10.4 mph - N/A   Clear
5:54 PM 75.0 °F 54.0 °F 48% 30.06 in 10.0 mi NNE 12.7 mph - N/A   Clear
6:54 PM 73.0 °F 52.0 °F 48% 30.07 in 10.0 mi NNE 9.2 mph - N/A   Clear
7:54 PM 66.0 °F 53.1 °F 63% 30.09 in 10.0 mi NE 4.6 mph - N/A   Clear
8:54 PM 63.0 °F 53.1 °F 70% 30.10 in 10.0 mi NE 4.6 mph - N/A   Clear
9:54 PM 63.0 °F 53.1 °F 70% 30.12 in 10.0 mi ENE 4.6 mph - N/A   Clear
10:54 PM 61.0 °F 53.1 °F 75% 30.14 in 10.0 mi ENE 4.6 mph - N/A   Clear
11:54 PM 59.0 °F 52.0 °F 78% 30.15 in 10.0 mi ENE 3.5 mph - N/A   Clear